Regional Weather Roundup
Issued by NWS Albany, NY

Home | Current Version | Previous Version | Graphics & Text | Print | Product List | Glossary Off
Versions: 1 2 3 4 5 6 7 8 9 10 11 12 13 14 15 16 17 18 19 20 21 22 23 24 25 26 27 28 29 30 31 32 33 34 35 36 37 38 39 40 41 42 43 44 45 46 47 48 49 50

146
ASUS41 KALY 221810
RWRALY

NEW YORK STATE HOURLY WEATHER ROUNDUP
NATIONAL WEATHER SERVICE ALBANY NY
200 PM EDT MON MAY 22 2017

NOTE: "FAIR" INDICATES FEW OR NO CLOUDS BELOW 12,000 FEET WITH NO
SIGNIFICANT WEATHER AND/OR NO OBSTRUCTIONS TO VISIBILITY.

NYZ032-033-038>043-046>054-057>066-NYZ062>081-082-084-221900-
EAST


CITY           SKY/WX    TMP DP  RH WIND       PRES   REMARKS
ALBANY         CLOUDY    61  49  64 S14G25    30.00F
GLENS FALLS    NOT AVBL
POUGHKEEPSIE   CLOUDY    58  52  80 S5        30.04F
NEWBURGH       CLOUDY    57  54  88 VRB6      30.05
MONTGOMERY     LGT RAIN  59  53  80 S5        30.04F
WHITE PLAINS   LGT RAIN  55  54  96 E9        30.05F FOG
ISLIP          RAIN      56  56 100 SE10      30.07F VSB 1
NEW YORK CITY  LGT RAIN  61  57  87 E7        30.05F
CENTRAL PARK   RAIN      58  58 100 CALM      30.07F FOG
$$

NYZ005>009-017-018-044>046-055-056-221900-
CENTRAL


CITY           SKY/WX    TMP DP  RH WIND       PRES   REMARKS
FULTON         CLOUDY    63  59  87 VRB3      29.92S
SYRACUSE       CLOUDY    62  58  86 S9        29.93S
ROME           CLOUDY    54  54 100 E6        29.97F
ELMIRA         CLOUDY    64  57  78 SW10      29.95F
BINGHAMTON     CLOUDY    56  55  97 S8        29.97F
MONTICELLO     CLOUDY    54  54 100 SE7       30.05F
$$

NYZ026>034-041>043-087-221900-
NORTH


CITY           SKY/WX    TMP DP  RH WIND       PRES   REMARKS
WATERTOWN      LGT RAIN  60  57  89 VRB7      29.90F
FORT DRUM      NOT AVBL
OGDENSBURG     CLOUDY    62  55  77 S8        29.90S
MASSENA        CLOUDY    62  57  83 S8        29.90F
SARANAC LAKE   LGT RAIN  51  51 100 SW10G17   29.95R
PLATTSBURGH    LGT RAIN  50  47  89 S13       29.96F
$$

NYZ001>004-010>016-019>021-085-221900-
WEST


CITY           SKY/WX    TMP DP  RH WIND       PRES   REMARKS
NIAGARA FALLS  PTSUNNY   62  48  60 SW22G30   29.95S
BUFFALO        PTSUNNY   56  44  64 SW26G38   29.97S
DUNKIRK        CLOUDY    56  43  61 W20G35    30.02S
JAMESTOWN      CLOUDY    55  45  67 W12       30.00F
WELLSVILLE     MOSUNNY   68  54  60 W13G22    29.96F
ROCHESTER      PTSUNNY   63  49  60 W20G28    29.93F
PENN YAN       PTSUNNY   67  56  67 S10       29.93F
$$

             KEY
       WCI = WIND CHILL INDEX
       VSB = VISIBILITY
       HX  = HEAT INDEX
$$




USA.gov is the U.S. government's official web portal to all federal, state and local government web resources and services.